This demonstration page uses our WeatherBlox Daily Observations layout. Learn more.

38.88101, -77.10428

Hourly Observations for April 3, 2018

Temp ( °F °C ) Dew Point ( °F °C ) Humidity (%) Winds ( mph kmh ) Pressure ( in mb ) Visibility ( mi km ) Precip ( " mm )
12:52 am 00:52 Cloudy 46 7.8 35 1.7 66 66 SSE 6 9 30.18 1022 10 16.0934 0 0
1:52 am 01:52 Cloudy 46 7.8 36 2.2 68 68 SSE 12 19 30.17 1022 10 16.0934 0 0
2:52 am 02:52 Cloudy 45 7.2 37 2.8 74 74 S 10 17 30.16 1022 10 16.0934 0 0
3:52 am 03:52 Cloudy 45 7.2 37 2.8 74 74 S 9 15 30.16 1021 10 16.0934 0 0
4:52 am 04:52 Cloudy 45 7.2 37 2.8 74 74 SSE 8 13 30.14 1021 10 16.0934 0 0.0254
5:52 am 05:52 Cloudy 45 7.2 37 2.8 74 74 SSE 9 15 30.14 1021 10 16.0934 0 0.0254
6:52 am 06:52 Cloudy 44 6.7 37 2.8 76 76 SSE 8 13 30.13 1020 10 16.0934 0 0
7:52 am 07:52 Cloudy 45 7.2 37 2.8 74 74 SE 9 15 30.11 1020 10 16.0934 0 0
8:03 am 08:03 Cloudy 45 7.2 37 2.8 74 74 SE 8 13 30.12 1020 10 16.0934 0 0
8:52 am 08:52 Cloudy 45 7.2 37 2.8 74 74 S 9 15 30.12 1020 10 16.0934 0 0
9:52 am 09:52 Cloudy 46 7.8 38 3.3 73 73 SSE 7 11 30.1 1019 10 16.0934 0 0
10:52 am 10:52 Cloudy 47 8.3 40 4.4 77 77 S 8 13 30.09 1019 10 16.0934 0 0
11:07 am 11:07 Cloudy 47 8.3 40 4.4 77 77 S 10 17 30.09 1019 10 16.0934 0 0
11:52 am 11:52 Cloudy 48 8.9 41 5 77 77 S 10 17 30.06 1018 10 16.0934 0 0
12:52 pm 12:52 Cloudy 48 8.9 42 5.6 80 80 SSW 8 13 30.04 1017 10 16.0934 0 0
1:52 pm 13:52 Cloudy 50 10 43 6.1 77 77 SSW 8 13 30.02 1017 10 16.0934 0 0
2:52 pm 14:52 Cloudy with Light Rain 50 10 43 6.1 77 77 S 7 11 29.99 1016 10 16.0934 0 0.0254
3:00 pm 15:00 Cloudy with Light Rain 50 10 43 6.1 77 77 SSE 8 13 29.97 1015 10 16.0934 0 0.0254
3:52 pm 15:52 Cloudy 50 10 43 6.1 77 77 S 12 19 29.96 1015 10 16.0934 0 0.0254
4:52 pm 16:52 Cloudy 52 11.1 44 6.7 75 75 S 5 7 29.94 1014 10 16.0934 0 0
4:54 pm 16:54 Cloudy 52 11.1 44 6.7 75 75 S 6 9 29.94 1014 10 16.0934 0 0
5:52 pm 17:52 Cloudy 53 11.7 44 6.7 72 72 SSW 5 7 29.94 1014 10 16.0934 0 0
6:52 pm 18:52 Cloudy 52 11.1 46 7.8 80 80 ESE 5 7 29.91 1013 10 16.0934 0.01 0.254
7:52 pm 19:52 Cloudy with Light Rain 53 11.7 46 7.8 77 77 SSW 8 13 29.91 1013 10 16.0934 0 0.0254
8:52 pm 20:52 Cloudy 55 12.8 47 8.3 74 74 S 14 22 29.81 1009 10 16.0934 0 0.0254
9:52 pm 21:52 Cloudy 54 12.2 47 8.3 77 77 WNW 5 7 29.88 1012 10 16.0934 0 0
10:52 pm 22:52 Mostly Cloudy 53 11.7 48 8.9 83 83 E 3 6 29.83 1010 10 16.0934 0 0
11:52 pm 23:52 Cloudy 52 11.1 48 8.9 86 86 Calm 29.81 1009 10 16.0934 0 0

Powered by AerisWeather